STARLINK-37326, 68542

Orbit data source: Space-Track

STARLINK-37326, 68542 is a payload satellite owned by SpaceX/Seattle (US) in LEO that was launched on Thu, 02 Apr 2026 UTC via an FALCON 9 launch vehicle from the Air Force Eastern Test Range (AFETR). Payload-class satellites include a variety of spacecraft equipped with specific instruments for various scientific and technological missions. These include communications satellites like Starlink; space stations such as the ISS; scientific satellites like the Hubble; Earth observation satellites from companies like Planet Labs, Umbra, and HawkEye 360; GPS; miniature CubeSats for education and research; and military/defense satellites.

Loading next visibility...
Identifier
68542, 2026-070A
Orbit
LEO
Country
Flag of USUS
Related business
Manufacturer
SpaceX/Seattle
Mission
Operational Commercial Communications
Bus & Motor
STARLINK V2MO, Unknown motor
Mass
575 kg wet, ~530 kg dry
Launch date (UTC)
2026-04-02 (5 months ago)
Launch vehicle
FALCON 9
Launch site
Air Force Eastern Test Range (AFETR)
Object type
Payload
Rocket body
Debris
Shape & HBR
Box + 1 Pan, 17.7 m
Radar Cross Section
41.120 m², Large (>1 m²)

Expand to show TLE details & history
Last TLE update: 1 day ago

TLE from 1 day ago
0 STARLINK-37326
1 68542U 26070A   26246.43605117  .00014319  00000-0  43410-3 0  9990
2 68542  53.1590 253.7732 0001393  78.8916 281.2243 15.34401750 23810
Epoch: 2026-09-03T10:27Z
TLE epoch observation values (Epoch: 2026-09-03T10:27:54.821Z)
Latitude
-0.00001°
Longitude
114.22051°
Altitude
463.414 km
Speed
7.636 km/s
True Right ascension
16h 55m 05s
True Declination
0° 00' 00"
Sunlit
Object was in daylight at epoch
Visualization orbit readout
Latitude
Unknown
Longitude
Unknown
Altitude
Unknown
Speed
Unknown
Apparent Right ascension
Unknown
Apparent Declination
Unknown
Sunlit
N/A
Visualization observer readout
Local Sidereal Time
02:05:23
Azimuth
Unknown
Elevation
Unknown
Doppler factor
Unknown
Orbital elements
Apogee altitude
463.908 km
Perigee altitude
462.002 km
Semi-major axis
6,841.092 km
Eccentricity
0.00014
Inclination
53.159°
RAAN
253.7732°
Arg. of periapsis
78.8916°
True anomaly
281.20864°
Mean anomaly
281.2243°
Eccentric anomaly
281.21647°
Mean motion
3.83579 °/min
Orbital period
93.85 mins
BSTAR
0.0004341
Loading maneuver chart data...
Computing Atmospheric mass density...
Loading historical data...
Loading historical data...
Loading historical data...
Loading historical data...
Loading historical data...
Loading historical data...
Loading historical data...

Documentation

Showing up to 5 results
|